EHI
37 39 38 36 38 41 41 38 34 30 26 21 16 10 4 3 4 4 2 1 0 1 2 3 2 1 1 1 1 1 1 2 3 2 1 0 0 0 0 0 0 1 0
39 42 43 41 43 47 46 42 39 35 29 23 17 12 7 5 4 3 2 1 1 1 2 2 2 1 2 2 1 1 2 2 3 4 2 1 0 0 0 0 0 1 1
42 46 49 48 48 49 48 44 43 40 36 29 21 17 16 14 10 6 4 2 2 2 3 3 2 2 3 3 2 2 3 3 4 5 4 3 1 0 0 0 0 0 0
41 46 50 51 49 47 44 41 42 42 42 38 28 23 23 21 16 9 5 3 3 3 4 3 3 3 3 2 2 2 4 5 5 5 6 5 3 2 1 0 0 0 0
38 42 46 48 47 44 40 38 40 42 44 41 33 28 26 24 17 11 7 4 3 4 4 4 3 3 3 1 1 1 2 4 5 6 7 7 6 5 4 3 1 1 0
37 39 42 43 41 39 38 39 40 40 39 36 33 30 29 25 20 15 11 7 4 4 4 4 4 3 3 2 1 1 1 2 3 5 7 8 8 8 7 6 3 1 1
39 40 42 41 36 34 37 41 42 39 33 30 29 29 29 27 22 16 12 8 5 5 6 6 5 4 3 3 3 2 1 1 2 4 5 7 7 8 9 7 4 1 1
41 40 41 38 34 32 35 40 42 38 30 26 26 25 24 22 19 14 10 8 7 8 9 10 8 6 5 4 5 5 4 3 3 3 5 7 7 7 7 8 6 3 1
41 41 40 37 33 31 31 35 38 37 31 27 23 19 16 14 13 11 9 9 11 12 13 12 9 8 8 9 9 8 7 6 5 5 5 8 8 5 5 7 8 5 2
43 43 41 38 34 31 30 31 35 36 33 28 21 14 10 9 9 10 11 12 13 14 13 12 10 9 11 13 13 11 8 7 7 6 5 6 6 3 3 4 6 5 2
48 49 47 42 39 35 32 31 33 35 33 27 20 14 11 10 9 10 12 11 11 12 12 11 10 10 11 14 14 11 8 6 6 5 4 3 3 2 2 2 4 4 2
55 55 54 50 47 40 35 33 32 30 29 26 21 17 16 14 12 13 12 11 9 10 10 10 10 9 10 11 11 10 8 5 4 3 3 3 3 3 3 2 2 2 2
58 59 60 59 54 47 40 35 30 27 26 25 23 22 21 18 16 15 14 13 12 11 10 10 10 10 8 8 8 8 7 4 3 2 2 2 3 4 4 2 1 1 1
57 60 64 64 61 54 46 37 32 30 30 28 27 26 23 19 17 17 17 16 14 12 10 9 9 9 6 6 7 6 6 3 2 1 1 1 1 3 3 2 1 1 1
56 60 65 68 66 60 51 43 39 38 36 31 27 25 22 19 18 17 17 17 15 12 9 7 6 6 5 5 6 6 5 4 3 2 1 1 0 1 1 1 2 2 2
58 61 68 71 69 63 57 50 44 40 38 32 26 22 20 18 16 14 14 14 13 11 9 6 5 5 4 3 3 5 5 4 4 4 3 2 1 0 0 0 1 1 2
59 64 69 73 72 66 60 53 45 41 37 31 25 20 17 16 13 9 8 10 11 11 11 9 7 7 4 1 0 1 2 2 3 4 5 4 1 0 1 1 1 1 1
58 62 67 72 73 68 59 50 44 42 37 30 24 18 14 13 11 9 7 9 11 13 13 12 11 9 5 1 0 0 1 1 2 4 5 4 2 1 1 2 2 2 2
56 59 65 70 71 66 57 49 44 41 35 29 24 19 13 11 11 12 12 13 14 15 16 15 13 10 5 2 1 1 2 2 2 3 3 3 2 1 1 1 2 3 3
57 60 66 69 68 64 58 52 46 39 33 27 23 19 14 11 11 14 16 16 16 16 17 15 12 8 5 2 1 1 1 1 1 2 1 1 1 0 0 0 1 1 2
55 59 64 66 64 60 57 52 45 38 32 26 21 18 15 11 11 14 16 16 15 14 14 13 10 7 4 2 1 0 0 0 0 0 0 0 0 0 0 0 0 0 1
50 53 57 60 58 54 51 49 44 39 33 26 21 18 15 11 11 14 15 14 13 11 10 9 7 5 3 1 0 0 0 0 0 0 0 0 0 0 0 0 0 0 0
48 49 51 52 52 49 48 47 45 40 34 28 23 20 18 16 14 14 13 11 10 9 7 5 3 2 1 0 0 0 0 0 0 0 0 0 0 0 0 0 0 0 0
47 47 45 45 45 45 45 45 43 39 34 29 25 23 22 19 15 12 10 9 8 7 5 3 2 1 1 1 0 0 0 0 0 0 0 0 0 0 0 0 0 0 0
40 40 39 37 36 36 36 37 36 34 31 27 23 19 18 15 12 11 9 6 5 5 4 3 2 2 2 1 0 0 0 0 0 0 0 0 0 0 0 0 0 0 0
34 34 33 30 28 27 28 29 29 28 26 23 18 13 10 9 9 11 9 6 4 4 2 2 1 1 1 0 0 0 0 0 0 0 0 0 0 0 0 0 0 0 0
Wind_Speed
10 10 11 11 11 11 11 11 11 10 8 6 6 6 5 5 5 5 5 6 6 5 5 4 4 5 4 4 4 4 4 4 3 3 3 3 5 4 4 4 4 4 4
9 10 11 11 12 12 11 11 11 10 9 7 5 4 4 4 4 4 4 6 6 6 6 5 4 4 4 4 4 4 3 3 3 3 3 3 4 4 4 3 4 3 3
10 11 11 11 11 11 11 9 10 10 10 8 6 5 4 4 4 5 5 6 6 6 5 5 5 4 5 5 5 5 6 4 4 4 4 3 2 1 3 3 3 3 2
10 10 11 11 11 10 10 10 10 10 10 9 8 8 6 6 5 4 4 5 5 6 6 5 5 5 5 4 6 6 5 5 5 4 4 5 4 3 2 3 3 3 3
9 10 10 10 9 9 9 9 9 9 10 9 8 7 7 5 4 4 4 4 4 5 5 5 5 5 5 5 5 4 6 5 5 4 4 5 4 6 5 4 3 3 3
8 8 8 8 8 8 8 9 9 9 9 9 8 8 7 6 5 5 4 4 4 4 5 5 4 5 4 5 5 5 6 6 6 5 5 5 5 5 5 5 5 4 3
9 9 9 9 8 8 9 9 9 8 8 8 7 7 7 6 6 5 4 4 3 3 3 4 4 4 4 5 5 5 5 6 6 6 5 5 6 5 5 5 5 4 3
9 9 9 8 8 9 9 9 9 8 8 7 7 6 6 5 4 5 4 4 3 2 2 3 4 4 4 4 4 5 5 5 5 6 6 5 5 5 5 5 4 4 4
9 9 9 8 8 8 8 9 9 8 7 7 6 5 5 5 4 4 4 3 3 3 3 3 3 3 4 4 4 3 4 4 5 5 5 5 4 4 4 5 5 5 5
10 9 9 8 8 8 8 8 8 8 7 7 5 4 5 5 4 4 4 3 2 2 2 3 3 3 3 3 3 3 3 3 3 3 4 4 4 4 4 4 5 5 5
10 10 9 8 8 8 8 8 7 7 7 6 5 4 4 4 4 3 3 3 3 2 3 3 3 3 3 3 3 3 3 3 3 3 3 3 4 4 3 4 4 4 4
9 10 9 8 8 8 7 7 7 7 6 6 5 4 3 3 3 3 3 3 3 3 2 2 3 3 3 3 3 3 3 2 2 2 3 3 3 3 3 3 3 3 3
10 10 9 9 8 7 7 7 7 7 7 7 6 5 4 3 2 2 2 2 2 2 1 1 2 2 1 1 2 2 2 1 1 2 2 3 3 3 2 3 2 2 3
10 10 10 9 8 8 7 7 6 6 7 7 6 5 4 3 3 2 2 2 2 1 1 1 1 0 1 1 1 1 1 1 1 1 1 2 2 2 2 2 2 2 2
11 11 10 9 9 8 8 7 7 6 6 7 6 6 5 4 3 3 3 2 2 2 2 2 1 1 1 1 1 1 1 1 1 0 0 1 2 3 2 2 2 2 2
12 12 11 11 10 9 8 8 7 7 7 6 6 6 5 5 4 4 3 3 3 3 3 2 2 1 1 3 2 1 0 1 1 0 0 0 1 2 2 2 3 2 2
11 12 12 11 9 9 8 8 8 7 7 6 6 6 5 5 5 4 4 4 4 3 3 3 2 2 4 4 3 2 1 0 0 0 1 1 1 1 1 2 1 0 1
9 10 10 10 10 9 9 8 8 7 7 6 6 6 5 6 5 5 4 4 3 3 3 3 3 3 5 4 3 1 1 1 1 1 1 1 2 2 2 1 1 1 1
6 8 9 10 9 9 10 9 8 7 7 6 6 5 5 5 5 5 5 4 4 3 3 3 3 3 4 4 2 1 1 1 1 1 2 1 2 3 3 1 0 1 1
5 7 9 9 9 8 9 9 9 8 6 6 6 5 5 5 5 5 4 4 3 3 3 3 3 4 4 4 2 2 0 1 1 2 2 4 3 3 3 1 0 0 1
6 8 9 8 8 8 8 8 8 7 6 6 5 5 5 5 4 4 4 3 3 3 3 4 3 3 3 5 2 2 1 0 1 1 1 3 3 2 3 3 1 1 2
6 8 8 7 7 8 8 8 7 6 6 6 6 5 5 4 4 4 4 3 3 4 4 3 3 3 3 3 2 2 3 3 1 1 1 3 2 1 1 1 2 3 4
5 6 7 8 6 6 6 6 5 5 6 6 5 5 4 4 3 4 4 3 3 3 3 3 3 2 2 3 3 2 2 3 1 2 4 2 1 2 2 1 2 3 1
5 5 6 7 6 5 4 4 5 5 6 6 5 5 5 4 4 3 3 2 2 2 2 2 2 2 2 2 2 2 2 2 1 2 4 3 1 1 1 2 1 0 1
5 4 4 5 5 5 4 4 5 5 5 5 5 5 5 4 4 3 2 1 2 1 0 1 2 2 2 1 1 1 1 1 1 1 2 2 2 1 1 1 1 1 1
4 4 4 5 5 4 4 3 4 5 5 5 4 4 3 4 4 5 4 4 3 4 3 3 2 2 3 4 2 1 2 2 0 2 2 2 2 2 1 1 1 1 1
Wind_Direction
183 180 181 184 183 185 185 187 193 187 188 192 199 202 207 211 208 209 209 212 220 215 218 230 204 218 215 221 215 215 210 223 226 238 234 224 218 222 225 231 238 223 220
179 179 183 185 188 187 189 190 193 191 195 196 204 212 212 218 211 212 204 216 220 221 217 223 226 218 216 217 222 222 235 234 222 245 251 242 215 205 210 215 218 232 228
186 182 186 189 191 190 189 191 191 191 197 193 198 204 204 220 208 210 207 217 220 221 230 224 232 232 230 215 220 225 230 240 236 237 257 264 255 242 191 206 220 221 237
191 187 188 191 193 190 187 191 190 193 194 193 202 205 210 214 216 217 210 212 218 224 225 226 229 234 238 230 232 225 235 238 243 232 241 261 293 275 245 215 209 214 233
189 188 189 187 187 186 184 187 188 191 193 197 200 208 217 219 220 217 212 219 215 225 228 223 225 228 237 232 241 239 239 238 242 246 246 245 244 247 257 256 248 243 246
175 178 177 175 180 182 181 182 185 192 191 196 201 208 215 216 219 221 216 215 211 219 220 225 225 232 238 233 235 237 234 246 252 253 254 252 252 247 248 257 252 253 253
170 171 173 174 177 178 179 179 181 188 190 195 202 209 214 215 218 226 218 224 224 219 211 228 226 234 236 238 238 238 245 242 246 248 252 253 256 261 256 257 260 261 262
166 168 170 171 173 175 177 177 178 182 187 190 195 205 210 216 217 221 229 222 233 231 217 224 228 234 239 242 237 245 242 244 249 253 256 259 257 255 250 246 249 256 252
161 164 165 167 169 172 176 176 178 180 184 187 188 196 207 220 222 215 222 225 228 223 214 223 225 231 237 243 241 248 250 251 253 259 255 257 263 257 249 244 241 248 258
161 163 163 165 165 166 168 172 175 177 181 182 188 185 195 202 214 223 218 221 221 226 224 230 237 239 238 236 239 249 251 254 260 268 277 275 273 273 261 254 249 249 255
163 162 161 160 158 158 160 165 168 171 173 175 176 185 185 191 201 212 214 211 220 224 233 236 239 244 244 238 232 246 246 249 265 277 278 280 283 277 270 257 247 243 237
163 161 158 156 157 158 158 160 163 166 167 163 164 170 175 183 197 201 206 204 211 222 227 237 237 245 244 235 232 242 246 249 266 281 292 289 283 273 272 265 252 244 236
164 162 161 162 160 157 157 155 161 161 157 157 160 159 165 168 174 193 200 196 201 206 215 231 234 244 247 231 225 231 235 235 255 279 284 291 293 285 281 272 264 253 237
169 170 167 164 160 156 155 154 157 154 155 157 157 156 159 156 155 169 170 162 159 148 148 162 179 197 198 186 203 211 205 198 229 280 291 302 307 304 299 281 268 254 242
176 177 172 165 162 159 159 158 154 153 152 153 152 152 155 154 155 153 145 137 133 129 126 126 119 116 142 117 129 212 186 170 166 85 8 358 22 24 354 325 306 266 249
180 178 174 167 167 165 162 156 156 154 154 155 153 153 158 159 158 153 144 138 134 130 134 132 139 135 97 74 62 13 147 162 158 94 350 331 103 79 67 42 12 335 279
179 176 173 169 165 163 160 158 157 156 157 155 155 159 162 159 160 156 146 140 138 138 137 134 139 126 95 81 73 42 338 35 51 44 1 344 53 72 76 104 148 78 2
178 173 168 163 162 158 156 155 154 156 156 155 158 163 165 159 158 157 149 146 146 149 141 136 134 125 104 92 85 63 169 79 53 50 48 31 20 21 12 29 30 21 25
170 162 160 157 154 155 155 154 154 157 158 159 163 163 164 163 160 159 157 156 156 152 147 134 128 123 111 103 100 310 150 125 94 70 49 39 60 27 355 16 37 32 54
142 147 148 146 148 152 154 157 158 160 164 163 166 163 163 163 162 160 159 153 154 149 143 128 128 126 115 108 94 328 185 118 111 102 89 64 46 16 347 317 275 285 332
135 139 142 143 143 147 155 160 161 163 159 154 156 157 158 160 159 158 156 152 146 137 130 123 120 115 107 112 94 343 296 145 161 140 116 82 59 16 343 323 351 312 290
128 136 137 134 137 147 157 160 156 152 151 150 151 149 153 157 149 154 152 150 151 151 146 138 134 122 118 99 95 22 342 326 198 160 104 96 92 31 333 6 7 288 271
113 125 130 130 133 142 149 151 141 145 149 150 147 144 141 135 139 148 150 158 168 171 158 158 156 142 132 117 97 74 14 347 343 65 67 95 158 192 158 133 271 268 244
105 118 125 126 124 128 129 129 132 142 145 144 141 143 145 143 137 140 149 159 169 176 170 171 170 158 150 136 137 151 147 138 134 120 120 143 180 251 84 158 203 189 44
100 107 115 118 116 115 118 123 128 139 142 143 145 151 154 146 141 134 105 130 92 44 265 184 190 195 185 130 51 218 164 190 125 154 163 171 172 183 153 141 113 131 139
102 108 114 116 114 114 116 123 136 150 154 154 156 161 159 154 160 150 137 71 75 91 76 35 2 90 86 117 118 47 44 54 127 216 185 186 193 200 194 199 188 176 139